Flag for Western Sahara Weather past 2 weeks in Smara, Western Sahara

Now
82 °F

Passing clouds.


Feels Like: 83 °F
Forecast: 68 / 99 °F
Wind: 10 mph from Northeast

Location: Laayoune/Hassan Isl

Current Time: Aug 30, 2015 at 1:55:52 PM

Latest Report: Aug 30, 2015 at 1:00 PM


Visibility: N/A

Pressure: 30.01 "Hg

Humidity: 51%

Dew point: 63 °F

Location of SmaraLocation

Historic Weather in Smara — Graph

°F

Smara temperature yesterday

Maximum temperature yesterday: 82 °F (at 3:00 PM)
Minimum temperature yesterday: 72 °F (at 12:00 AM)
Average temperature yesterday: 76 °F

Past Weeks' High & Low Weather Summary

 TemperatureHumidityPressure
High90 °F (Aug 21, 4:00 PM)94% (Aug 17, 9:00 AM)30.12 "Hg (Aug 17, 9:00 AM)
Low68 °F (Aug 17, 4:00 AM)33% (Aug 21, 4:00 PM)29.89 "Hg (Aug 28, 6:00 PM)
Average76 °F65%30.01 "Hg
* Reported Aug 15 11:00 AM — Aug 30 11:00 AM, Smara, Weather by CustomWeather, © 2015

Note: Actual official high and low records may vary slightly from our data, if they occured in-between our weather recording intervals... More about our weather records

Advertising

Smara weather history for previous 24 hours

 ConditionsComfort  
Time TempWeatherWind HumidityBarometerVisibility
11:00 AM
Sun, Aug 30
75 °FScattered clouds.13 mph65%30.01 "HgN/A
9:00 AM72 °FPartly sunny.12 mph73%29.98 "HgN/A
8:00 AM72 °FOvercast.12 mph73%29.95 "HgN/A
7:00 AM72 °FPassing clouds.12 mph73%29.95 "HgN/A
6:00 AM70 °FPassing clouds.10 mph83%29.95 "Hg5 mi
5:00 AM68 °FPassing clouds.6 mph88%29.95 "Hg5 mi
4:00 AM70 °FClear.3 mph83%29.95 "Hg5 mi
3:00 AM70 °FPassing clouds.5 mph83%29.95 "Hg5 mi
2:00 AM72 °FPassing clouds.8 mph83%29.95 "Hg5 mi
1:00 AM72 °FPassing clouds.8 mph83%29.98 "Hg5 mi
12:00 AM73 °FMild.14 mph74%29.98 "Hg5 mi
11:00 PM
Sat, Aug 29
73 °FClear.13 mph74%29.98 "Hg10 mi
10:00 PM73 °FClear.13 mph74%29.95 "Hg10 mi
9:00 PM75 °FSunny.13 mph69%29.92 "Hg10 mi
8:00 PM77 °FSunny.14 mph65%29.92 "Hg10 mi
7:00 PM81 °FSunny.17 mph51%29.89 "Hg10 mi
6:00 PM81 °FSunny.18 mph58%29.89 "Hg10 mi
5:00 PM82 °FSunny.17 mph51%29.89 "Hg10 mi
4:00 PM82 °FSunny.16 mph51%29.92 "Hg10 mi
3:00 PM82 °FSunny.20 mph51%29.92 "Hg10 mi
2:00 PM81 °FPassing clouds.16 mph54%29.95 "HgN/A
Weather by CustomWeather, © 2015

See weather overviewHow to use our weather pages